Regional Weather Roundup
Issued by NWS

Home | Current Version | Previous Version | Graphics & Text | Print | Product List | Glossary On
Versions: 1 2 3 4 5 6 7 8 9 10 11 12 13 14 15 16 17 18 19 20 21 22 23 24 25 26 27 28 29 30 31 32 33 34 35 36 37 38 39 40 41 42 43 44 45 46 47 48 49 50
000
ASUS43 KDMX 010404
RWRIA

WEATHER ROUNDUP FOR IOWA
NATIONAL WEATHER SERVICE DES MOINES IA
  ISSUED BY NWS QUAD CITIES IA IL
1000 PM CST SAT FEB 28 2015

NOTE: "FAIR" INDICATES FEW OR NO CLOUDS BELOW 12,000 FEET WITH NO
SIGNIFICANT WEATHER AND/OR OBSTRUCTIONS TO VISIBILITY.

* - THESE STATIONS ARE NOT NWS STATIONS...THUS NOT UNDER NWS
QUALITY CONTROL.  THEY ALSO DO NOT REPORT WEATHER SUCH
AS PRECIPITATION OR FOG.

IAZ001>003-012>014-020>022-031>034-043>046-010500-
   NORTHWEST IOWA

CITY           SKY/WX    TMP DP  RH WIND       PRES   REMARKS
CARROLL *      CLOUDY    19  16  86 S6        30.35S WCI  11
CHEROKEE *     CLEAR     17  14  90 S7        30.31R WCI   7
DENNISON *     CLOUDY    19  18  93 S8        30.32S WCI   9
LE MARS *      CLEAR     18  14  86 S9        30.30R WCI   6
ORANGE CITY *  CLEAR     16  12  86 S12       30.27R WCI   3
SHELDON *      CLEAR     12  10  92 S10       30.26S WCI  -1
SIOUX CITY     CLEAR     20  14  77 S9        30.32R WCI   9
SPENCER        CLEAR     14   9  80 S9        30.29S WCI   2
STORM LAKE *   CLOUDY    18  14  86 S12       30.31S WCI   5
$$

IAZ055>058-069>071-079>083-090>094-010500-
   SOUTHWEST IOWA

CITY           SKY/WX    TMP DP  RH WIND       PRES   REMARKS
ATLANTIC *     FLURRIES  21  18  86 S8        30.36S WCI  12
AUDUBON *      LGT SNOW  19  16  86 S3        30.34F
CLARINDA *     CLOUDY    21  18  86 CALM      30.40R
COUNCIL BLFS * CLOUDY    21  19  93 S9        30.34R WCI  11
CRESTON *      CLOUDY    21  19  93 S5        30.37R WCI  15
HARLAN *       CLOUDY    21  21 100 S7        30.38S WCI  13
LAMONI         CLOUDY    16  13  88 S3        30.38R
RED OAK *      CLOUDY    21  19  93 S5        30.38R WCI  15
SHENANDOAH *   CLOUDY    23  18  80 S6        30.39S WCI  16
$$

IAZ047>049-059>061-072>074-084-010500-
   CENTRAL IOWA

CITY           SKY/WX    TMP DP  RH WIND       PRES   REMARKS
AMES           CLOUDY    18  14  84 SE10      30.39S WCI   6
ANKENY *       CLOUDY    19  18  93 SE6       30.40S WCI  11
BOONE *        CLOUDY    18  18 100 SE7       30.35S WCI   8
CHARITON *     CLOUDY    18  16  93 SE7       30.40R WCI   8
DES MOINES     FLURRIES  21  17  84 SE6       30.40R WCI  13
GRINNELL *     CLOUDY    10   9  92 CALM      30.41R
KNOXVILLE *    CLOUDY    18  12  79 SE9       30.40R WCI   6
MARSHALLTOWN   CLOUDY    14  11  87 SE8       30.39S WCI   3
NEWTON *       CLOUDY    16  12  86 SE9       30.41R WCI   4
PELLA *        MOCLDY    13  13 100 CALM      30.43S
PERRY *        FLURRIES  20  19  95 S7        30.37S WCI  11
$$

IAZ004>006-015-016-023>025-035-036-010500-
   NORTH CENTRAL IOWA

CITY           SKY/WX    TMP DP  RH WIND       PRES   REMARKS
ALGONA *       CLOUDY    16  14  93 S13       30.34S WCI   2
CLARION *      FLURRIES  12  10  92 SE8       30.37S WCI   1
ESTHERVILLE    FAIR      14  10  84 S13       30.29F WCI   0
FORT DODGE *   CLOUDY    18  12  79 S7        30.36S WCI   8
MASON CITY     CLOUDY     9   5  84 S12       30.38R WCI  -6
WEBSTER CITY * FLURRIES  16  16 100 SE8       30.35S WCI   5
IOWA FALLS *   CLOUDY    15  12  88 SE10      30.38S WCI   2
$$

IAZ007>011-017>019-026>030-037>042-050>054-066-010500-
   NORTHEAST IOWA

CITY           SKY/WX    TMP DP  RH WIND       PRES   REMARKS
CEDAR RAPIDS   FAIR       9   7  92 SE7       30.41F WCI  -2
CHARLES CITY * CLOUDY     7   1  78 SE7       30.40R WCI  -5
CLINTON *      FAIR       9   7  92 E8        30.48S WCI  -4
DECORAH *      CLOUDY     9  -2  61 S7        30.39S WCI  -3
DUBUQUE        CLEAR      5   2  87 S7        30.42F WCI  -7
MONTICELLO *   PTCLDY     9   9 100 SE7       30.43F WCI  -3
OELWEIN *      CLOUDY     5   1  85 SE9       30.41S WCI  -9
WATERLOO       PTCLDY     4   1  88 E3        30.42S
$$

IAZ064-065-067-068-078-010500-
   EAST CENTRAL IOWA

CITY           SKY/WX    TMP DP  RH WIND       PRES   REMARKS
DAVENPORT      PTCLDY     9   6  88 SE7       30.45F WCI  -2
IOWA CITY      CLOUDY    13  11  92 SE5       30.46F WCI   5
MT. PLEASANT * MOCLDY    12  10  92 E5        30.44F FOG     WCI   4
MUSCATINE *    CLOUDY     9   7  92 CALM      30.47F FOG
QUAD CITIES    PTCLDY     9   5  84 E3        30.46F FOG
$$

IAZ062-063-075>077-085>089-095>099-010500-
   SOUTHEAST IOWA

CITY           SKY/WX    TMP DP  RH WIND       PRES   REMARKS
BURLINGTON     CLOUDY    18  16  92 SE5       30.44F FOG     WCI  11
FAIRFIELD *    PTCLDY     9   5  85 SE6       30.43F HAZE    WCI  -1
FORT MADISON * LGT SNOW  18  18 100 SE5       30.45S WCI  11
KEOKUK *       CLOUDY    19  18  93 SE6       30.44R FOG     WCI  11
OSKALOOSA *    FAIR       8   6  90 SE9       30.42S WCI  -5
CENTERVILLE *  MOCLDY    14  14 100 SE5       30.41S WCI   6
OTTUMWA        PTCLDY    10   8  92 SE5       30.42S WCI   2
WASHINGTON *   PTCLDY    10  12 100 SE8       30.44S WCI  -1
$$

ABBREVIATIONS USED IN REMARKS
   TC - TEMPERATURES IN CELSIUS
  WCI - WIND CHILL INDEX
   HX - HEAT INDEX
  VSB - VISIBILITY
$$


USA.gov is the U.S. government's official web portal to all federal, state and local government web resources and services.